SCP
-0 0 0 0 0 0 0 0 0 1 1 0 0 0 1 1 1 1 1 2 2 2 1 1 1 1 1 1 1 1 1 1 1 1 1 0 0 0 1 1 1 1 0 0 0 0 0 0 0
0 0 0 0 0 0 0 0 0 1 1 0 0 0 0 1 1 1 1 1 2 1 1 1 1 1 1 1 1 1 1 1 1 1 1 1 1 1 1 0 0 0 0 0 0 0 0 0 0
0 0 0 0 0 0 0 0 0 1 0 0 0 0 0 0 1 1 1 1 1 1 1 1 1 1 1 1 1 0 0 1 1 1 1 1 1 1 0 0 0 0 0 0 0 0 0 0 0
0 0 0 0 0 0 0 0 0 0 0 0 0 0 0 1 1 1 1 1 1 1 1 1 1 1 1 1 0 0 0 0 0 0 0 0 0 0 0 0 0 0 0 0 0 0 0 0 0
0 0 0 0 0 0 0 0 0 0 0 0 0 1 1 1 1 1 1 1 1 1 1 1 1 1 1 1 1 1 1 0 0 0 0 0 0 0 0 0 0 0 0 1 1 0 0 0 0
0 0 0 0 0 0 0 0 0 0 0 0 1 1 1 1 1 1 1 1 1 1 1 1 1 1 1 1 1 1 1 1 0 0 0 0 0 0 0 0 0 1 1 1 1 0 0 0 0
0 0 0 0 0 0 0 0 0 0 0 0 0 1 1 1 1 1 1 1 1 1 1 0 0 0 0 1 1 1 1 1 1 0 0 0 0 0 0 1 1 1 1 1 0 0 0 0 0
0 0 0 0 0 0 0 0 0 0 0 0 0 1 1 1 1 1 1 1 1 1 1 0 0 0 0 1 1 1 1 1 1 0 0 0 0 0 0 1 1 1 1 1 0 0 0 0 0
0 0 0 0 0 0 0 0 0 0 0 0 1 1 1 1 1 1 1 1 2 2 1 1 0 0 1 1 1 1 1 1 1 0 0 0 0 0 0 1 1 1 0 0 0 0 0 0 0
0 0 0 0 0 0 0 0 0 0 0 0 1 1 1 1 1 1 1 2 2 2 1 1 1 1 1 1 1 1 1 0 0 0 0 0 0 0 1 1 1 0 0 0 0 0 0 0 0
0 0 0 0 0 0 0 0 0 0 0 1 1 2 2 2 1 1 1 2 2 2 1 1 1 1 1 1 1 1 1 1 1 1 1 0 0 0 1 1 1 0 0 0 0 0 0 0 0
0 0 0 0 0 0 0 0 0 0 0 1 2 3 3 2 1 1 2 2 2 2 1 1 1 2 2 2 1 1 1 1 1 1 1 0 0 1 1 1 1 1 0 0 0 0 0 0 1
0 0 0 0 0 0 0 0 0 0 0 1 2 3 3 2 1 1 2 3 3 3 3 2 2 2 3 2 2 1 2 2 2 1 1 1 1 1 1 1 1 1 1 1 1 1 1 1 1
0 0 0 0 0 0 0 0 0 0 0 0 1 3 3 2 2 2 2 3 5 5 5 4 4 3 3 3 2 2 2 2 2 2 2 1 1 2 2 2 1 1 1 1 1 1 1 1 1
0 0 0 0 0 0 0 0 0 0 0 0 1 2 3 3 2 3 3 5 7 7 7 7 5 3 3 2 2 2 2 3 3 4 3 2 2 2 2 2 2 2 2 2 2 2 2 2 2
0 0 0 0 0 0 0 0 0 0 0 0 1 2 3 3 3 4 5 6 8 9 9 8 5 4 3 3 3 3 4 5 5 5 4 3 2 2 2 3 3 3 3 3 3 3 2 2 2
0 0 0 0 0 0 0 0 0 0 0 0 1 2 2 3 4 5 6 8 9 11 12 10 7 5 5 4 5 5 7 8 7 7 5 4 3 2 3 4 4 3 3 3 3 2 2 2 1
0 0 0 0 0 0 0 0 0 0 0 0 1 2 3 4 7 9 10 11 12 13 13 11 9 8 8 7 7 8 9 9 8 7 6 4 3 3 3 4 4 3 3 2 2 2 1 1 1
0 0 0 0 0 0 0 0 0 0 0 0 0 1 4 8 13 16 16 17 17 17 16 14 11 11 11 10 10 9 9 9 8 6 5 4 3 2 3 3 3 2 1 1 1 1 0 0 0
0 0 0 0 0 0 0 0 0 0 0 0 0 1 5 12 18 22 22 22 24 25 23 17 13 13 12 12 11 11 10 8 7 6 5 3 2 1 1 1 1 1 0 0 0 0 0 0 0
0 0 0 0 0 0 0 0 0 0 0 0 0 1 5 13 20 23 26 31 33 33 28 20 15 14 13 12 12 11 9 8 6 4 3 2 1 0 0 0 0 0 0 0 0 0 0 0 0
0 0 0 0 0 0 0 0 0 0 0 0 0 1 5 12 18 21 29 41 41 34 28 21 15 15 13 12 12 10 9 7 5 3 2 1 0 0 0 0 0 0 0 0 0 0 0 0 0
0 0 0 0 0 0 0 0 0 0 0 0 0 1 4 11 16 20 31 44 43 32 26 20 15 14 12 11 12 11 9 6 4 2 1 0 0 0 0 0 0 0 0 0 0 0 0 0 0
0 0 0 0 0 0 0 0 0 0 0 0 0 1 5 10 14 20 31 39 37 29 23 17 12 11 10 10 10 10 7 4 2 1 0 0 0 0 0 0 0 0 0 0 0 0 0 0 0
0 0 0 0 0 0 0 0 0 0 0 0 1 3 7 10 13 18 25 28 25 21 17 12 8 6 6 6 6 5 3 1 0 0 0 0 0 0 0 0 0 0 0 0 0 0 0 0 0
0 0 0 0 0 0 0 0 0 0 0 0 2 5 8 10 12 14 15 14 12 11 9 7 5 4 3 3 2 2 1 0 0 0 0 0 0 0 0 0 0 0 0 0 0 0 0 0 0
0 0 0 0 0 0 0 0 0 0 0 0 2 6 9 10 11 11 9 7 6 5 5 4 3 2 1 1 1 1 0 0 0 0 0 0 0 0 0 0 0 0 0 0 0 0 0 0 0
0 0 0 0 0 0 0 0 0 0 0 0 2 5 8 10 10 8 6 5 3 2 2 2 1 1 1 1 1 0 0 0 0 0 0 0 0 0 0 0 0 0 0 0 0 0 0 0 0
0 0 0 0 0 0 0 0 0 0 0 0 2 5 8 9 8 6 4 3 1 1 1 1 1 1 1 0 0 0 0 0 0 0 0 0 0 0 0 0 0 0 0 0 0 0 0 0 0
0 0 0 0 0 0 0 0 0 0 1 1 2 6 9 10 8 5 3 2 1 0 0 0 0 0 0 0 0 0 0 0 0 0 0 0 0 0 0 0 0 0 0 0 0 0 0 0 0
Wind_Speed
9 12 11 9 8 10 16 18 1 11 9 10 11 9 16 17 11 10 8 18 23 19 17 17 16 15 14 13 13 13 13 13 13 12 12 11 10 9 9 8 8 8 8 8 8 8 8 7 6
10 12 9 7 10 13 15 8 13 15 7 1 8 9 16 15 14 12 11 16 21 19 16 16 16 15 14 13 13 13 13 13 13 12 12 11 10 9 8 8 7 7 7 7 7 7 7 6 5
12 14 8 9 15 15 11 4 13 13 12 6 9 12 14 11 11 10 12 14 18 18 17 17 16 15 14 13 13 13 13 13 12 11 11 10 9 8 7 7 7 7 7 7 7 7 6 5 4
8 9 8 11 18 14 2 3 7 11 7 8 9 12 13 9 10 14 14 14 18 19 18 17 16 15 14 13 12 12 12 12 11 10 9 8 8 7 6 6 6 7 6 6 7 7 6 5 3
10 8 12 15 17 9 9 8 6 9 9 8 10 16 13 12 17 16 13 14 16 19 17 16 16 14 13 12 11 11 10 10 9 9 7 6 6 5 5 6 6 6 7 7 8 7 6 4 3
9 9 13 15 15 6 8 8 8 7 6 9 12 16 12 14 15 14 14 13 16 19 17 15 15 15 13 13 11 10 9 8 8 7 6 5 4 5 5 5 6 7 7 8 7 6 5 3 1
10 12 16 16 10 6 6 7 7 8 8 7 11 16 13 15 14 14 14 13 15 19 17 14 14 13 13 12 11 10 9 8 7 6 5 5 5 6 6 6 7 7 7 7 6 5 4 3 3
11 12 18 16 12 6 8 7 7 8 6 6 7 10 13 16 15 14 14 14 14 17 16 14 14 13 12 11 12 11 10 9 8 7 7 7 7 7 7 8 7 7 6 6 5 5 5 5 6
15 13 16 16 6 5 8 8 8 9 9 8 8 15 18 20 18 15 14 14 13 14 13 14 14 13 13 12 12 11 11 9 9 8 9 8 6 7 7 8 9 8 7 6 6 7 8 8 8
13 13 18 13 2 4 8 8 6 8 10 7 11 18 21 20 18 16 16 16 15 13 13 13 14 13 13 11 10 9 9 9 8 7 8 6 4 4 7 9 10 9 8 8 9 10 9 9 6
17 19 18 11 6 5 3 7 8 8 8 5 5 12 16 15 17 16 16 16 15 13 11 12 12 10 11 9 9 7 6 7 8 7 6 5 5 5 6 5 6 6 8 7 7 8 7 5 1
19 19 18 13 6 4 10 9 10 11 7 10 10 13 16 16 16 16 17 17 17 15 12 12 10 9 8 8 7 6 6 5 5 5 4 4 2 2 3 3 5 5 4 4 3 3 2 1 1
19 18 17 13 10 9 13 15 11 10 7 12 17 21 21 19 15 13 15 17 18 15 12 12 9 7 5 5 3 5 5 6 7 5 3 3 2 1 2 2 2 2 1 1 2 2 3 3 3
17 17 17 16 15 14 14 14 14 12 11 12 14 18 22 17 14 10 12 15 17 14 12 12 9 8 6 4 1 3 5 5 6 4 5 2 2 3 3 2 2 3 3 4 3 4 3 2 2
18 17 16 16 16 16 17 16 17 15 12 11 11 12 15 16 14 15 14 14 17 15 12 13 11 10 8 7 4 4 5 5 5 4 5 4 4 3 2 1 2 3 3 3 3 5 4 3 4
17 18 17 17 18 19 20 18 16 15 13 10 9 9 12 16 19 18 16 11 15 15 13 13 13 13 9 7 6 4 5 6 5 5 5 5 4 3 1 3 5 3 3 3 3 4 5 5 5
17 17 19 20 21 21 21 18 16 13 11 10 9 9 10 14 18 16 17 16 15 14 14 12 10 14 11 8 5 6 6 6 6 5 5 4 4 4 3 5 4 4 3 5 5 6 5 5 5
16 18 21 22 21 23 22 18 15 13 9 11 11 11 10 11 14 15 16 15 13 13 13 11 9 12 10 7 5 5 7 6 6 5 5 5 4 5 4 5 5 4 4 4 3 3 3 3 4
20 21 19 17 19 21 20 18 15 14 12 13 13 12 11 10 11 14 15 14 11 12 12 10 10 10 8 7 7 6 6 6 6 6 6 6 6 6 5 4 3 2 3 2 2 3 4 4 3
21 21 20 17 15 13 13 14 13 13 16 14 14 13 10 10 10 16 16 15 13 11 11 10 9 10 9 7 6 6 7 6 6 6 6 6 6 4 5 4 2 3 1 0 1 2 2 4 4
19 17 17 16 16 17 18 18 15 14 19 22 18 15 14 12 12 18 19 17 15 12 11 9 9 9 8 9 7 8 7 7 6 6 4 5 5 5 5 3 3 3 3 2 2 2 3 3 4
14 13 15 16 16 15 17 17 16 17 21 22 21 19 16 14 13 17 18 17 15 13 10 8 8 8 8 9 10 11 8 8 7 5 5 4 4 4 3 2 3 3 3 3 3 6 3 3 4
13 13 15 15 15 16 17 18 17 17 18 15 17 18 16 14 14 17 17 15 13 12 10 9 9 9 8 7 8 7 6 6 6 6 5 4 4 3 3 3 3 1 1 4 3 2 3 3 3
12 13 13 13 12 16 17 19 19 17 19 15 13 11 12 12 12 17 16 15 13 12 11 10 9 8 7 7 6 7 9 8 7 5 5 3 5 4 4 4 2 1 2 2 0 0 3 1 2
14 11 10 12 13 17 19 19 17 16 17 11 4 1 4 7 15 17 17 16 15 14 12 11 10 8 7 8 8 8 8 7 6 4 3 1 3 5 4 4 1 1 1 2 2 2 3 2 2
14 15 12 12 13 12 11 9 8 8 5 2 1 3 6 10 16 18 16 16 15 15 13 12 11 9 8 8 7 7 6 4 4 2 1 1 3 6 5 2 1 1 2 3 1 2 4 3 3
16 14 16 15 16 16 14 16 15 7 7 7 7 6 6 13 17 18 16 14 14 13 12 11 11 9 8 8 7 6 4 5 6 3 1 3 3 3 3 1 1 2 2 2 2 4 4 4 5
17 14 10 13 14 15 14 15 11 9 6 5 6 3 8 16 17 17 15 14 12 12 11 10 9 9 8 7 6 6 5 5 3 3 5 5 3 3 0 2 2 2 3 4 4 4 5 5 5
15 16 14 12 12 14 13 9 4 6 7 6 5 6 15 18 18 16 14 14 14 12 11 9 8 8 6 5 4 5 4 4 3 3 4 3 2 0 3 2 3 4 4 5 5 5 6 7 7
14 15 14 12 14 15 14 12 8 9 12 15 13 4 16 19 18 16 15 15 14 12 10 8 7 6 5 5 5 4 3 3 2 4 3 2 1 2 3 3 4 5 5 4 5 6 7 6 7
Wind_Direction
242 255 256 269 258 248 255 260 183 68 39 56 60 54 66 55 65 101 113 99 107 114 119 115 112 113 112 110 110 113 115 115 114 114 113 112 109 106 103 101 98 98 100 102 103 102 100 96 88
267 257 258 253 256 252 256 249 88 87 80 160 87 74 75 73 82 106 111 114 116 121 128 119 118 117 117 115 113 113 115 115 115 116 116 116 114 112 110 107 104 102 103 106 109 109 107 105 96
262 261 257 244 244 256 292 47 101 125 168 144 90 71 62 79 94 113 123 130 120 120 118 123 125 123 122 121 119 119 119 120 121 121 120 120 118 115 113 111 109 107 107 108 111 114 115 112 106
242 228 235 246 248 240 230 64 134 132 126 102 105 89 81 82 108 120 139 136 121 119 122 129 130 129 128 126 124 124 125 126 127 126 126 125 122 119 114 109 108 109 110 110 109 110 112 109 98
236 245 238 250 248 226 145 171 157 127 137 130 107 98 93 93 105 126 144 129 123 120 123 132 134 134 134 132 131 131 133 134 133 132 132 131 127 122 116 111 111 111 110 108 108 108 106 96 73
235 240 244 246 244 190 154 155 135 136 148 138 118 109 113 119 122 141 136 131 124 120 123 132 137 142 143 142 141 142 142 140 139 140 142 142 139 134 126 118 114 113 112 112 114 116 119 120 141
251 256 259 263 261 171 147 151 155 158 158 147 136 123 130 130 134 140 133 130 128 123 128 141 144 149 152 150 150 150 149 149 150 153 158 160 158 151 140 127 121 120 121 124 130 139 152 172 215
251 272 273 268 251 181 154 167 175 160 137 170 162 122 128 132 142 137 139 131 127 127 135 143 152 151 154 155 156 157 157 158 159 164 172 171 168 163 154 146 134 137 140 146 157 173 191 206 224
245 255 267 270 237 163 165 182 177 148 159 183 120 119 140 142 145 146 142 136 134 132 140 146 151 155 158 153 154 158 161 165 164 173 180 180 184 168 167 149 150 160 167 174 188 201 212 218 227
232 244 253 277 306 162 184 185 187 174 176 166 115 123 137 146 150 156 152 150 148 143 150 154 151 158 156 147 151 164 171 168 183 175 178 190 192 171 156 150 169 178 185 192 211 219 225 225 222
229 244 267 297 300 318 261 186 203 216 193 146 103 129 133 155 159 163 160 157 151 152 164 153 152 155 150 148 166 169 165 163 180 172 169 175 177 163 159 166 174 191 196 204 212 222 227 218 184
235 247 261 285 297 307 285 266 213 224 205 145 162 168 150 181 175 171 162 157 151 160 166 148 146 149 160 155 160 150 148 163 144 148 173 163 191 194 165 173 178 191 195 199 202 228 203 86 335
234 248 260 270 283 272 268 271 255 227 198 161 180 175 167 188 176 174 162 157 154 159 157 144 147 129 107 98 144 146 135 138 129 145 165 147 162 152 95 67 51 341 50 109 357 357 37 21 328
244 241 250 259 261 262 263 266 261 243 208 188 188 173 175 182 167 174 170 161 154 153 152 141 141 129 120 131 170 115 121 117 133 139 137 121 85 72 52 62 62 0 18 40 353 348 2 340 352
257 258 254 248 252 254 255 249 247 240 220 202 201 187 177 167 171 177 180 163 152 151 146 141 147 147 153 164 174 150 135 134 118 106 99 77 73 78 47 69 74 27 3 18 5 358 346 344 345
247 245 252 251 243 244 249 250 247 232 221 211 217 213 186 173 182 181 168 153 150 152 146 153 162 158 171 175 182 160 136 123 110 106 98 89 82 77 46 59 62 9 1 21 21 17 3 4 354
245 239 243 246 237 233 236 244 255 261 215 211 225 233 213 187 186 178 161 156 156 151 149 162 164 159 174 169 156 115 105 109 111 110 106 98 94 84 71 73 55 4 26 37 23 33 11 350 341
234 237 236 240 244 233 230 231 238 257 223 220 227 233 231 207 181 169 157 160 153 148 152 164 165 158 164 151 136 120 113 107 103 101 101 107 92 68 65 91 64 36 47 49 38 13 347 314 292
253 261 262 253 239 242 231 233 241 250 234 223 236 243 238 219 178 150 148 149 154 151 158 167 170 158 155 148 147 138 130 119 109 104 100 88 81 71 53 77 80 62 64 50 15 21 332 318 318
241 257 268 277 285 283 268 241 236 260 272 258 230 235 247 233 164 146 151 153 166 162 165 168 167 158 157 145 140 133 124 116 107 97 90 87 80 72 77 54 38 51 28 35 42 40 341 321 341
240 247 262 272 278 277 275 263 249 251 262 266 253 229 236 239 177 159 160 161 163 169 173 171 163 157 155 139 126 118 109 115 118 119 107 96 96 80 58 53 40 19 329 69 25 21 9 342 322
246 251 260 267 271 270 270 270 254 245 243 243 245 235 226 232 190 167 162 160 161 162 163 149 144 144 134 131 138 143 147 147 139 131 122 119 105 100 98 73 62 23 354 56 18 59 355 329 306
248 251 254 257 259 263 266 270 270 267 258 244 250 229 218 225 197 166 160 151 144 143 135 122 118 121 128 132 139 141 129 117 113 109 123 135 122 127 118 98 73 24 28 64 25 30 344 323 355
250 258 260 262 264 261 258 260 264 260 265 256 255 214 209 215 167 150 142 133 127 122 115 112 112 110 111 110 112 109 112 115 119 131 147 172 159 157 139 128 99 297 60 76 322 56 276 354 19
225 239 246 239 236 247 247 248 257 259 262 270 295 100 166 148 131 132 134 129 126 125 119 116 115 112 106 102 99 103 109 116 125 144 155 219 160 136 113 104 117 338 91 234 225 233 254 246 223
224 225 242 261 266 273 281 278 285 301 295 261 137 118 120 122 128 133 134 131 131 127 124 124 122 118 111 106 106 109 124 136 120 74 106 118 56 94 126 131 192 252 261 283 11 310 272 244 222
243 228 235 250 266 275 280 288 290 260 227 229 233 221 174 129 125 127 127 128 131 131 128 127 124 120 116 113 106 99 87 85 94 91 10 88 69 105 99 99 238 255 262 273 276 265 280 266 247
225 245 251 252 262 271 278 282 292 332 338 261 253 247 116 117 122 125 128 131 128 125 121 114 117 117 113 113 119 112 95 95 125 129 76 68 77 68 15 251 252 263 263 257 252 264 270 278 270
220 229 241 260 268 274 274 276 336 357 322 300 247 191 139 135 132 129 131 128 122 119 118 116 115 116 120 120 111 114 125 132 138 106 109 104 86 169 252 258 268 266 261 256 254 259 267 269 272
249 245 243 250 254 258 269 281 340 14 9 6 348 31 123 124 125 126 126 123 123 123 122 119 116 115 111 104 95 91 93 99 104 104 101 128 163 275 297 301 294 291 292 292 291 295 306 317 321